ECMWFNIL_850_dewp_057.txt.gz
Dewpoint
8 8 7 7 5 5 6 4 4 4 4 4 4 3 1 0 -0 -4 -7 -8 -10 -11 -12 -12 -10 -8 -3 -1 -1 -1 -5 -9 -10 -11 -13 -12 -14 -16 -18 -18 -8 -1
9 7 7 7 6 6 4 2 3 4 4 4 3 -0 -6 -9 -7 -9 -11 -9 -10 -12 -12 -11 -9 -8 -8 -7 -6 -5 -8 -8 -6 -6 -7 -5 -7 -10 -13 -15 -8 -2
9 8 7 7 6 6 3 1 3 3 3 4 -0 -8 -13 -13 -11 -10 -8 -6 -9 -10 -8 -9 -7 -6 -6 -7 -7 -6 -7 -8 -6 -6 -8 -6 -5 -7 -8 -6 -3 -0
8 8 7 7 6 5 3 -0 1 2 0 -2 -6 -13 -12 -11 -11 -9 -7 -6 -7 -9 -8 -7 -5 -3 -4 -4 -4 -6 -7 -7 -7 -6 -6 -7 -7 -7 -7 -5 -3 -1
8 8 8 8 5 3 3 -0 -1 0 -5 -9 -10 -12 -11 -10 -9 -8 -7 -5 -5 -7 -7 -7 -6 -5 -4 -3 -2 -5 -4 -4 -6 -5 -5 -6 -6 -5 -6 -6 -6 -3
9 8 6 6 3 2 4 2 -1 -2 -7 -11 -10 -10 -10 -8 -7 -6 -6 -4 -4 -6 -6 -7 -7 -4 -2 -0 1 2 3 2 -1 0 1 -0 -2 -2 -1 -1 -2 -2
7 7 6 6 5 4 4 3 -0 -3 -8 -12 -8 -9 -9 -6 -3 -2 -3 -3 -1 -0 -0 -2 -2 -0 1 3 5 5 6 4 4 5 5 4 2 1 2 2 2 2
6 7 7 6 7 7 5 3 -0 -3 -8 -11 -8 -7 -7 -1 2 1 0 1 3 4 5 4 3 3 3 6 7 6 5 5 6 7 6 5 5 4 4 3 3 4
5 8 8 7 8 8 7 3 -2 -2 -4 -8 -7 -6 -4 2 4 3 3 4 5 5 6 6 6 6 6 7 7 7 6 6 6 7 7 6 6 6 5 5 4 5
3 7 8 8 8 9 8 4 -2 -1 1 -2 -2 -2 -1 3 4 4 5 5 5 6 6 6 7 7 7 7 8 8 8 7 7 8 7 7 7 7 6 6 6 6
1 5 8 8 8 9 9 6 -1 -3 1 2 2 1 2 3 4 5 6 6 6 6 6 6 7 7 7 7 8 8 8 8 8 8 8 8 8 7 7 7 6 6
2 5 8 8 7 8 8 6 1 -5 -3 2 2 1 2 4 5 5 6 6 6 6 6 6 6 6 7 7 7 8 8 8 8 7 8 8 8 8 8 7 7 7
7 8 8 8 7 8 7 7 6 2 -2 1 2 1 4 5 5 6 7 6 6 6 6 6 6 6 7 7 7 7 7 8 8 8 8 8 8 8 8 8 8 8
9 9 9 8 8 8 8 7 8 6 3 3 3 3 5 6 6 6 7 6 6 6 6 6 7 7 7 7 7 7 8 8 8 8 8 8 7 7 8 8 8 8
8 8 10 9 8 8 8 8 9 8 7 6 5 5 6 7 6 7 7 6 6 7 7 7 7 7 6 6 6 7 7 8 8 7 7 7 7 7 7 8 8 9
9 9 10 10 9 8 8 9 9 9 8 8 6 6 6 6 6 7 7 7 7 7 7 8 7 6 5 5 5 5 6 6 6 7 7 7 7 7 7 8 8 9
9 9 9 9 9 8 8 8 8 8 8 8 6 5 6 6 6 6 5 6 7 8 7 7 6 5 5 5 3 3 4 5 6 7 6 7 7 7 7 6 7 8
9 9 9 9 8 8 8 8 7 7 8 8 7 6 6 6 5 4 4 5 6 7 7 6 5 5 4 4 3 3 4 3 5 7 6 6 7 6 6 6 6 7
9 9 9 8 7 7 7 7 8 7 7 7 7 6 6 6 5 5 6 6 6 7 7 5 4 4 3 3 3 4 4 3 4 6 6 6 6 5 5 5 5 5
9 9 8 8 8 8 7 8 8 7 7 6 6 6 6 6 6 5 6 6 5 6 5 3 2 2 1 1 2 2 2 1 2 5 5 3 2 -0 -0 1 1 2
8 8 7 7 8 7 7 7 6 5 5 5 5 6 5 6 6 6 5 5 5 5 4 1 -2 -3 -4 -3 -3 -3 -4 -5 -0 4 5 2 -4 -11 -9 -7 -7 -4
5 5 5 6 6 6 6 6 5 5 4 4 5 5 6 6 5 4 3 3 4 4 1 -5 -9 -10 -12 -10 -9 -11 -11 -4 2 4 4 4 1 -4 -5 -7 -8 -1
2 3 3 3 4 5 5 5 5 5 5 4 4 5 5 5 4 3 2 2 3 3 -1 -9 -11 -9 -11 -12 -10 -13 -12 -1 4 4 4 5 4 2 0 -6 -8 -1
0 1 2 2 2 3 4 4 4 4 3 3 3 3 3 3 3 3 2 2 3 3 -0 -6 -8 -7 -8 -10 -8 -10 -11 -4 3 4 4 4 4 3 2 -1 -4 -2
-0 -0 0 1 1 2 2 2 2 2 2 2 2 2 2 2 1 2 2 2 2 -1 -4 -5 -7 -8 -8 -9 -9 -9 -10 -7 0 4 4 3 2 3 2 1 -1 -1
0 0 1 0 0 1 2 1 1 1 1 1 1 1 1 0 -0 0 1 2 1 -3 -6 -4 -6 -9 -9 -9 -10 -9 -10 -9 -3 2 3 2 1 1 2 1 0 -1

ECMWFNIL_850_dewp_060.txt.gz
Dewpoint
4 -3 -10 -3 1 3 6 7 6 5 4 3 1 -4 -8 -11 -14 -15 -15 -15 -15 -15 -15 -12 -6 -3 -3 -3 -7 -14 -15 -14 -15 -16 -16 -17 -16 -11 -5 -2 -2 -3
0 -5 -8 -1 3 5 6 5 4 4 4 3 -0 -6 -12 -17 -17 -16 -16 -15 -14 -16 -14 -11 -10 -10 -11 -11 -13 -13 -12 -11 -11 -11 -13 -15 -14 -12 -5 -1 -2 -5
-0 -3 -5 1 4 5 6 4 3 5 4 3 -1 -11 -16 -17 -17 -16 -16 -15 -13 -13 -12 -10 -10 -10 -10 -10 -9 -9 -9 -9 -9 -9 -10 -11 -11 -10 -6 -2 -3 -7
3 1 1 5 5 5 4 3 4 5 4 2 -3 -14 -16 -15 -15 -14 -12 -11 -10 -9 -9 -7 -6 -7 -7 -7 -7 -7 -7 -7 -8 -8 -8 -7 -8 -7 -7 -5 -5 -6
6 4 6 7 4 2 2 2 3 5 3 1 -7 -17 -14 -14 -13 -10 -10 -9 -8 -8 -8 -7 -6 -6 -6 -6 -6 -5 -5 -6 -7 -6 -6 -6 -5 -5 -6 -6 -5 -6
5 5 8 8 3 -2 -1 -0 2 3 1 -3 -12 -15 -12 -12 -10 -9 -9 -8 -8 -8 -7 -7 -7 -5 -4 -4 -1 2 1 -2 -1 1 0 -1 -2 -1 -1 -1 -2 -5
5 6 8 8 4 -3 -4 -1 1 -0 -3 -7 -14 -14 -10 -10 -9 -8 -9 -7 -8 -8 -7 -7 -6 -5 -4 -1 2 5 4 2 4 5 4 3 2 2 3 3 1 -0
4 5 6 8 7 2 -2 -1 0 -2 -7 -12 -13 -11 -10 -9 -9 -9 -8 -7 -8 -6 -6 -7 -5 -5 -3 2 4 4 3 4 6 7 5 4 4 4 3 2 3 3
5 4 4 6 8 5 -0 1 2 -1 -8 -13 -10 -10 -10 -7 -6 -9 -8 -7 -5 -1 -1 -2 -1 -4 -2 4 5 3 4 4 5 7 6 4 5 5 4 4 3 4
7 6 3 5 8 4 -1 1 2 -2 -7 -12 -9 -9 -10 -3 -1 -5 -5 -1 1 4 3 3 4 2 1 5 6 4 6 6 5 6 6 6 6 6 6 6 5 5
8 6 4 6 8 4 -0 2 1 -3 -5 -8 -7 -6 -7 0 4 1 1 4 4 5 5 5 6 5 5 7 6 6 7 7 7 7 7 7 7 7 6 7 6 6
6 5 4 7 9 6 4 5 2 -3 -2 -2 -2 -0 -1 2 5 4 4 6 5 5 6 6 6 7 6 6 6 7 8 8 7 7 7 7 7 6 7 7 6 7
6 5 5 6 8 6 6 7 4 1 3 3 3 3 3 4 5 4 5 6 5 5 6 6 6 7 7 6 6 7 7 7 7 6 6 7 6 5 6 6 6 7
8 8 8 7 7 7 6 8 7 6 5 5 5 5 4 4 4 5 5 5 5 5 5 6 6 6 7 7 7 7 7 6 5 4 5 5 5 4 4 5 5 6
7 8 8 8 9 8 7 7 7 6 5 5 5 4 4 5 5 5 5 5 6 6 5 5 6 6 7 6 5 5 5 5 5 5 5 4 5 5 4 5 5 4
8 8 8 9 10 9 8 6 6 6 4 3 5 4 4 5 5 5 5 6 6 6 6 5 5 6 6 6 4 4 5 5 5 5 4 3 4 5 4 4 4 3
9 8 8 9 9 9 8 6 6 5 4 4 5 5 5 5 5 5 6 6 7 6 6 5 4 5 6 5 4 4 4 4 4 4 4 4 4 4 4 4 4 3
9 9 9 8 8 8 7 7 6 6 5 6 6 6 6 6 6 6 7 7 7 6 5 5 4 3 4 4 4 4 3 3 4 5 5 5 5 5 5 5 5 5
8 8 8 7 7 6 6 7 7 7 6 6 7 7 7 6 6 6 6 6 6 5 4 4 4 3 4 5 4 4 3 3 5 6 6 6 6 5 6 6 5 5
6 6 7 6 6 6 7 7 7 7 6 6 7 7 7 7 6 6 6 5 4 4 4 3 3 4 5 4 4 4 3 2 4 6 6 6 4 3 3 3 3 5
6 7 8 8 7 8 8 7 6 6 6 6 7 7 7 6 6 6 6 5 4 4 3 4 4 4 3 2 4 5 2 -1 2 5 6 5 2 -3 -5 -7 -5 2
6 6 7 7 7 7 7 7 6 6 6 6 6 6 6 7 6 6 5 5 4 3 2 1 1 0 -1 -0 2 3 -1 -3 2 5 5 5 1 -6 -9 -10 -7 -3
4 4 5 6 6 6 6 5 5 5 5 5 5 5 6 6 5 5 5 4 4 2 -1 -4 -6 -8 -8 -6 -5 -6 -7 -3 3 5 4 4 2 -4 -6 -7 -7 -7
1 2 3 3 4 5 5 5 5 4 4 3 4 4 5 4 3 4 5 4 3 0 -5 -10 -11 -13 -13 -12 -12 -13 -10 -2 3 4 4 4 2 0 -1 -3 -5 -6
0 1 1 2 3 3 4 4 4 4 3 3 3 3 4 3 3 3 3 4 4 2 -5 -10 -10 -9 -11 -10 -10 -11 -10 -2 3 4 4 4 2 2 2 0 -2 -3
1 1 1 1 2 2 2 2 3 3 3 3 2 2 2 2 2 2 2 2 4 2 -3 -8 -8 -9 -9 -10 -9 -10 -10 -4 2 4 4 3 2 2 2 1 -0 -1

ECMWFNIL_850_dewp_063.txt.gz
Dewpoint
7 3 -1 -2 -6 -11 -6 0 3 3 0 -4 -5 -5 -7 -9 -9 -10 -10 -7 -3 -1 2 3 3 0 -6 -13 -14 -15 -14 -15 -16 -12 -7 -5 -3 -2 -2 0 3 4
7 5 3 -0 -4 -4 -1 1 3 2 -3 -5 -6 -8 -10 -11 -12 -12 -14 -13 -10 -5 -2 0 -1 -5 -13 -16 -16 -17 -17 -17 -17 -16 -12 -9 -8 -7 -6 -1 3 4
8 7 5 2 0 2 4 3 2 0 -2 -2 -5 -11 -12 -12 -14 -15 -15 -16 -15 -11 -7 -6 -8 -11 -13 -13 -13 -14 -13 -15 -15 -16 -15 -14 -14 -15 -13 -6 1 3
8 6 5 5 4 6 6 4 2 2 2 0 -4 -10 -13 -15 -16 -15 -15 -14 -13 -12 -10 -10 -9 -9 -9 -9 -9 -9 -9 -9 -9 -10 -11 -11 -13 -15 -16 -15 -7 -1
8 6 6 6 6 7 6 3 2 4 3 1 -4 -10 -14 -16 -15 -14 -14 -10 -8 -8 -8 -8 -7 -7 -7 -7 -7 -7 -7 -7 -7 -7 -8 -7 -8 -9 -10 -12 -13 -9
7 6 6 6 6 6 5 4 4 5 4 1 -4 -11 -16 -15 -14 -12 -11 -8 -8 -7 -7 -7 -6 -5 -4 -2 -3 -3 -2 -1 -1 -2 -3 -3 -3 -4 -5 -5 -8 -10
7 7 7 7 6 6 5 5 5 5 4 2 -5 -14 -16 -13 -12 -10 -9 -9 -8 -7 -7 -6 -5 -4 -1 2 2 3 4 5 4 4 2 1 2 2 0 -2 -3 -5
8 8 8 7 6 6 5 5 5 5 5 1 -6 -15 -14 -12 -10 -9 -8 -8 -7 -7 -7 -6 -5 -3 -0 3 4 5 6 6 6 6 4 4 4 4 3 2 1 -1
8 8 8 7 7 6 5 5 6 6 5 1 -8 -15 -13 -10 -9 -9 -8 -8 -7 -7 -7 -6 -5 -2 3 5 4 5 6 7 7 7 5 5 6 5 4 4 4 3
9 9 9 8 7 6 6 6 7 7 5 1 -5 -12 -11 -8 -7 -7 -6 -6 -5 -4 -4 -3 -2 1 6 7 6 5 6 6 6 6 5 6 6 6 5 5 5 5
8 8 8 9 7 6 6 6 7 7 6 4 -1 -6 -8 -5 -4 -4 -3 -1 0 1 2 3 4 4 7 8 7 5 5 6 6 6 6 6 7 6 6 6 6 5
7 8 8 8 8 7 6 6 5 4 5 5 3 -1 -4 -1 1 -1 -0 3 4 4 5 5 6 6 7 8 8 7 6 6 6 6 6 6 6 7 6 7 6 5
7 7 6 6 7 7 5 4 2 1 4 6 5 2 -0 2 4 2 2 4 5 5 6 6 6 7 7 6 7 7 7 7 6 6 6 5 6 6 6 6 7 6
7 7 6 5 6 6 5 3 2 2 4 5 5 5 3 2 5 4 3 5 5 5 5 6 6 6 6 6 6 5 6 7 6 5 5 5 5 5 5 5 6 6
7 7 7 5 5 5 4 4 4 5 5 4 5 5 4 3 4 5 4 5 5 5 5 5 5 6 6 6 6 4 4 5 5 4 4 4 4 5 5 4 5 5
7 7 6 5 5 5 5 5 5 7 7 5 5 6 5 4 4 4 4 4 5 5 5 5 5 5 6 6 5 3 3 4 4 3 3 3 4 5 5 4 4 5
7 7 6 5 5 4 4 4 4 5 6 5 4 5 5 4 4 4 4 4 4 5 5 6 6 6 5 5 5 4 3 3 3 3 3 3 4 4 4 4 4 4
8 7 6 6 6 5 4 5 6 6 6 5 4 5 5 5 4 4 5 5 5 5 5 6 6 6 5 5 4 4 4 3 2 2 3 3 3 4 4 4 4 4
7 7 7 6 6 5 5 6 8 7 6 5 4 4 4 5 5 5 5 5 5 5 5 6 6 6 5 4 4 4 3 2 2 3 4 4 5 4 5 4 4 4
6 6 7 6 6 5 4 6 7 7 6 5 5 5 5 6 6 6 5 5 5 6 6 6 6 5 4 4 4 3 3 3 4 5 5 5 4 4 4 3 3 3
5 6 7 6 6 7 7 7 8 8 6 5 6 7 7 6 6 6 6 6 6 6 6 5 5 4 3 3 4 3 3 4 5 5 5 4 3 4 5 4 0 -2
5 5 6 6 6 7 7 8 8 8 7 6 6 7 7 7 5 5 6 6 6 5 5 4 4 3 4 4 4 3 4 4 5 5 5 4 0 -2 -0 0 -3 -8
5 5 5 5 5 6 6 6 6 7 7 6 5 6 8 7 6 6 6 6 5 5 4 4 4 4 5 4 3 3 3 3 3 4 4 3 -1 -5 -6 -5 -5 -7
4 5 5 5 5 5 4 5 5 6 6 6 6 6 7 7 6 6 5 5 4 4 3 2 2 3 3 1 1 1 2 3 4 3 2 2 1 -1 -3 -5 -5 -5
2 3 4 5 4 4 4 4 5 5 6 6 6 5 5 5 5 5 4 4 3 2 -1 -4 -5 -5 -5 -6 -4 -2 0 4 5 4 3 3 3 1 -1 -2 -3 -4
1 1 2 3 4 4 4 4 4 4 4 4 4 4 3 3 4 3 3 2 1 -1 -4 -9 -12 -13 -14 -12 -10 -8 -1 4 5 3 3 4 3 2 -0 -1 -1 -2

ECMWFNIL_850_dewp_069.txt.gz
Dewpoint
10 10 7 4 4 4 5 6 7 7 6 6 5 4 2 4 6 6 6 6 5 5 1 -7 -7 -3 -1 1 4 6 7 8 7 5 4 4 5 5 5 5 5 6
10 9 6 5 5 6 6 6 6 6 5 3 3 2 2 5 6 6 6 5 4 3 -2 -12 -11 -9 -8 -4 0 4 6 7 6 3 3 4 4 4 3 4 5 5
9 7 6 6 7 7 8 6 5 6 5 3 2 3 2 4 6 6 5 5 3 0 -7 -14 -13 -13 -12 -11 -7 -2 2 4 4 2 2 3 4 4 3 5 5 4
8 7 7 8 8 8 7 4 4 6 6 2 2 3 1 1 4 5 5 3 0 -6 -13 -16 -16 -16 -14 -14 -13 -9 -6 -4 -1 0 1 2 3 4 3 5 5 3
8 8 9 9 8 7 4 1 3 6 4 -0 -1 0 -2 -3 0 2 2 -0 -5 -11 -17 -17 -16 -17 -16 -16 -15 -13 -13 -12 -9 -4 -0 1 2 3 3 4 5 4
9 9 9 8 7 4 2 1 4 4 -0 -5 -6 -5 -6 -6 -5 -4 -4 -6 -9 -12 -15 -16 -15 -15 -14 -13 -12 -11 -12 -13 -14 -9 -4 -2 1 3 2 3 3 3
9 9 8 7 5 3 3 3 5 3 -3 -7 -8 -8 -9 -11 -12 -12 -10 -9 -10 -12 -13 -12 -12 -11 -10 -9 -9 -9 -9 -9 -10 -11 -9 -6 -1 2 3 2 2 2
9 8 7 7 5 3 4 5 6 3 -1 -3 -7 -10 -13 -16 -16 -14 -12 -9 -10 -10 -9 -9 -9 -8 -8 -8 -6 -6 -6 -7 -7 -9 -10 -9 -5 -0 2 2 2 1
8 7 7 6 4 3 6 7 5 3 2 1 -5 -12 -14 -17 -16 -14 -12 -10 -9 -8 -8 -7 -6 -7 -6 -4 -2 -2 -2 -3 -4 -5 -6 -7 -8 -5 -2 0 1 1
8 7 7 5 4 5 7 7 5 3 4 3 -3 -13 -16 -16 -15 -13 -10 -9 -8 -7 -6 -3 -1 -2 -2 1 2 2 1 1 1 -0 -2 -3 -4 -4 -4 -4 -1 0
7 7 7 5 5 7 7 6 5 5 5 5 -0 -12 -18 -13 -12 -11 -8 -8 -7 -5 -4 -0 2 3 3 3 3 3 3 2 2 2 2 1 0 1 0 -1 -2 -2
6 7 7 6 6 7 6 5 5 5 5 6 3 -7 -15 -11 -9 -8 -6 -7 -6 -5 -3 -1 0 2 3 4 4 4 3 2 2 2 3 3 2 3 3 3 1 -1
6 7 7 7 7 6 5 5 6 6 5 6 5 -2 -10 -8 -6 -6 -5 -6 -7 -6 -4 -3 -4 -2 1 3 4 4 3 3 3 4 4 4 4 4 4 4 4 2
6 7 7 7 7 5 3 2 4 5 6 6 5 1 -4 -5 -5 -6 -6 -5 -6 -4 -2 -2 -4 -2 1 3 3 4 4 3 4 5 5 5 5 4 4 5 5 5
7 7 7 7 6 5 4 2 1 5 7 6 5 1 -2 -2 -3 -7 -7 -5 -3 -2 -1 -1 -1 1 2 2 3 3 4 4 5 5 5 5 5 5 5 5 5 5
7 7 7 6 5 6 6 5 4 6 7 6 4 1 0 1 -2 -7 -7 -4 -2 -1 -2 -3 0 4 5 4 4 4 4 4 5 5 5 5 5 4 4 4 4 5
7 7 7 6 6 6 7 6 6 7 7 6 2 1 3 2 -3 -6 -5 -4 -3 -2 -4 -6 -1 4 6 6 6 6 5 6 6 6 5 4 3 3 3 3 3 4
8 8 8 7 7 6 6 6 6 6 7 6 1 -1 1 -1 -4 -3 -2 -3 -3 -3 -4 -5 -2 3 6 6 6 7 6 6 6 6 6 5 3 2 2 2 2 3
7 7 7 7 7 7 7 7 6 6 6 5 2 -0 -2 -3 -2 1 -1 -3 -4 -4 -4 -2 1 4 5 5 6 7 7 6 6 6 5 5 4 3 2 2 2 4
8 8 8 8 8 8 8 7 7 6 5 5 4 3 1 1 2 2 -1 -3 -4 -3 -0 3 3 4 5 5 6 6 6 6 6 5 5 5 4 4 3 2 3 4
9 9 9 9 9 9 8 8 7 7 6 6 6 5 3 3 3 1 -1 -2 -0 2 4 4 4 4 5 6 6 6 6 6 6 6 5 5 4 4 3 2 3 4
9 9 9 9 9 8 8 8 8 7 7 7 7 6 5 5 5 4 3 3 4 5 5 4 4 5 5 6 6 6 6 6 6 6 5 5 4 4 3 3 3 4
8 8 8 8 8 8 8 8 8 8 7 7 7 7 7 6 6 6 5 5 6 5 5 6 5 5 6 6 6 6 6 6 6 5 5 4 4 3 4 4 4 4
7 7 7 7 8 8 7 7 8 7 7 7 7 7 7 7 7 6 5 5 6 5 5 6 6 6 6 6 6 6 6 6 5 5 4 4 4 4 4 5 5 5
7 7 7 7 7 7 7 7 7 7 7 7 7 7 7 7 7 6 5 5 5 5 4 5 6 6 5 5 6 6 6 6 5 5 4 4 4 5 5 4 5 5
5 5 6 6 7 7 7 7 7 7 7 8 8 8 8 8 7 7 6 6 5 5 4 5 6 6 6 6 6 6 6 5 5 4 4 4 5 6 5 4 5 5

ECMWFNIL_850_dewp_072.txt.gz
Dewpoint
9 9 9 7 4 3 3 3 4 5 6 7 6 6 5 4 3 3 4 4 4 4 2 -3 0 4 4 5 5 6 7 8 8 7 6 6 6 6 6 6 7 8
10 10 10 8 5 2 1 2 4 5 6 6 5 3 1 0 2 3 4 4 3 3 -1 -7 -3 2 3 4 5 6 6 7 7 6 5 5 5 5 4 5 7 7
10 10 10 9 6 3 4 5 6 6 7 5 3 -1 -5 -2 1 2 4 4 2 0 -4 -9 -8 -5 -2 1 4 6 6 6 6 5 4 4 4 2 2 4 6 7
10 10 10 8 6 5 6 7 6 6 7 4 1 -2 -3 -1 2 3 4 4 2 -2 -8 -12 -11 -12 -10 -6 -3 2 4 5 5 4 3 3 1 0 3 5 6 6
10 10 10 8 7 7 7 7 6 5 6 5 2 0 -1 -0 2 4 3 3 2 -4 -13 -16 -13 -14 -14 -13 -10 -5 -1 2 4 3 2 2 0 1 4 6 4 3
10 10 9 7 8 8 8 8 5 4 6 5 2 1 -1 -2 -0 2 2 2 0 -7 -16 -17 -16 -17 -16 -15 -12 -10 -8 -5 -1 0 1 1 1 2 4 5 4 3
9 9 8 8 9 8 8 7 5 4 5 4 0 -2 -5 -8 -6 -2 1 1 -2 -10 -16 -16 -17 -16 -14 -13 -11 -11 -13 -12 -8 -3 0 1 1 2 3 4 4 3
8 8 9 9 9 8 7 6 4 4 5 1 -4 -6 -9 -11 -11 -7 -3 -2 -6 -12 -15 -14 -14 -12 -11 -10 -9 -10 -12 -13 -11 -6 -2 -0 1 2 2 3 3 2
8 9 9 9 8 7 5 4 4 5 4 -2 -6 -7 -9 -11 -12 -9 -5 -4 -8 -12 -12 -11 -10 -9 -8 -8 -7 -7 -7 -8 -8 -8 -5 -3 0 2 2 2 2 2
9 9 9 8 7 6 4 4 5 5 3 -1 -5 -7 -9 -12 -13 -9 -6 -5 -7 -10 -10 -9 -8 -7 -7 -6 -4 -2 -2 -3 -3 -4 -5 -5 -3 -0 1 1 1 1
8 9 8 7 7 5 3 5 6 5 4 2 -3 -8 -13 -15 -15 -11 -7 -7 -8 -9 -8 -7 -7 -7 -5 -4 -1 2 2 2 2 2 1 -1 -3 -3 -2 -1 -1 0
9 9 8 7 6 4 4 7 7 5 4 4 1 -6 -13 -17 -16 -13 -9 -8 -8 -8 -7 -6 -4 -3 -2 -1 1 3 4 4 4 4 4 3 2 1 1 -0 -1 -1
9 8 8 7 6 5 6 6 6 5 5 5 3 -2 -11 -16 -14 -13 -10 -9 -8 -7 -6 -4 -3 -2 -1 1 2 3 4 4 4 4 4 4 4 4 4 4 3 1
8 8 8 7 6 6 6 6 5 5 5 5 5 2 -7 -15 -13 -11 -9 -8 -7 -6 -5 -4 -3 -4 -3 -2 -0 2 3 4 3 3 4 5 4 4 5 5 5 4
8 8 8 8 7 7 7 6 5 5 5 5 6 5 -1 -10 -13 -9 -7 -6 -6 -6 -6 -6 -5 -5 -5 -4 -3 -0 2 4 4 4 4 5 5 5 5 5 5 5
7 7 7 7 7 7 6 5 4 4 5 5 6 6 3 -4 -10 -8 -4 -3 -4 -5 -6 -6 -6 -5 -5 -4 -3 -1 2 4 4 4 5 5 5 5 5 4 4 4
7 6 5 5 5 6 5 4 2 2 4 5 6 6 4 -1 -5 -8 -6 -3 -2 -2 -3 -5 -6 -5 -5 -5 -3 1 3 4 5 5 6 6 6 5 5 4 3 3
7 7 6 6 7 6 5 5 4 3 4 6 6 5 4 1 -2 -4 -4 -2 1 3 1 -4 -5 -4 -4 -5 -3 1 4 5 6 6 6 6 6 6 6 5 4 3
9 8 7 7 7 7 6 6 6 6 6 6 6 6 4 2 0 0 1 2 4 5 2 -2 -3 -4 -5 -5 -3 -0 4 6 6 6 6 7 6 6 6 5 4 4
9 8 7 7 7 7 6 6 6 7 7 6 6 6 5 3 2 3 3 4 5 4 1 -1 -1 -2 -4 -3 -1 1 4 5 6 6 6 7 6 6 6 5 5 4
9 9 8 8 7 7 7 7 6 6 7 7 6 6 6 5 3 3 3 2 1 -1 -2 -1 -1 -2 -4 -3 1 3 4 5 5 6 6 6 6 6 6 5 5 4
9 9 9 9 8 8 8 7 7 6 7 7 7 7 6 5 4 4 4 2 -1 -2 -1 0 -1 -3 -4 -2 2 4 4 5 5 6 6 6 6 6 6 5 5 4
8 8 9 9 8 8 8 8 7 7 8 8 7 7 6 5 5 5 5 4 2 2 2 1 -1 -1 1 3 4 5 5 5 6 6 6 6 6 6 6 5 5 4
8 8 8 8 8 8 8 8 8 8 8 8 8 7 7 7 7 7 7 6 5 5 5 3 2 3 5 5 6 5 5 6 6 6 6 6 6 6 6 5 5 4
6 7 7 7 7 7 7 7 7 7 8 8 8 8 8 8 8 8 8 7 7 7 6 6 5 5 6 6 6 6 5 5 6 6 6 6 6 6 6 5 5 4
4 5 6 6 7 7 7 7 7 7 7 7 7 7 8 8 8 8 8 7 7 7 6 6 6 6 5 5 5 5 4 5 6 7 6 6 6 6 5 5 5 5

ECMWFNIL_850_dewp_075.txt.gz
Dewpoint
7 8 8 7 6 7 6 5 4 4 3 2 2 3 3 3 4 5 5 6 6 4 -1 -1 3 4 4 3 3 4 7 7 7 7 6 6 6 6 6 7 8 8
8 9 8 6 6 6 6 5 4 3 4 4 5 6 5 5 5 5 6 6 6 4 -3 -4 2 4 3 2 2 4 5 7 7 6 5 5 5 5 4 5 7 8
9 9 9 7 5 5 5 5 4 4 5 5 6 7 5 4 5 6 7 6 5 3 -4 -6 -1 1 2 2 3 4 4 6 6 5 4 5 4 3 2 4 6 7
9 10 9 8 6 4 4 5 5 6 6 6 6 5 2 4 6 6 7 6 4 1 -6 -8 -6 -4 -2 -0 2 4 4 5 5 4 3 2 1 1 2 5 6 6
9 10 10 9 7 5 5 6 5 6 6 5 4 2 1 4 6 6 6 5 2 -3 -10 -11 -10 -10 -7 -5 -2 2 3 4 3 2 2 -0 1 4 4 5 5 6
9 10 10 9 7 6 7 7 6 5 6 5 3 0 0 4 5 5 5 3 -2 -10 -15 -13 -13 -14 -12 -11 -7 -4 -1 2 2 2 1 -0 2 5 5 4 4 4
9 10 10 9 7 7 8 8 7 5 5 4 1 -0 -1 2 5 5 4 0 -7 -16 -17 -15 -15 -15 -15 -15 -12 -11 -8 -3 -0 1 1 0 2 5 5 4 4 3
9 9 10 8 7 8 8 8 7 5 5 2 -1 -0 -1 -1 2 3 2 -2 -10 -17 -17 -17 -17 -16 -17 -17 -15 -15 -14 -10 -6 -2 0 0 2 3 4 4 3 2
9 9 9 8 8 8 8 8 6 5 5 2 -1 -1 -1 -3 -1 1 -0 -4 -11 -16 -16 -16 -16 -16 -15 -14 -13 -13 -14 -13 -10 -6 -2 -0 1 2 3 2 2 2
9 8 8 8 9 9 8 7 6 5 5 2 -1 -2 -3 -5 -4 -2 -2 -6 -11 -14 -14 -13 -12 -11 -10 -9 -8 -8 -9 -9 -10 -8 -4 -1 1 2 2 2 2 2
8 8 9 9 9 8 7 6 5 5 4 2 -2 -4 -4 -6 -6 -4 -3 -7 -11 -12 -11 -9 -8 -8 -7 -6 -5 -4 -4 -4 -4 -5 -5 -4 -2 1 2 2 2 2
7 8 9 9 9 8 6 5 5 5 4 2 -2 -4 -4 -6 -9 -7 -6 -8 -10 -10 -9 -8 -7 -7 -5 -3 -1 0 1 1 1 1 -0 -1 -2 -1 -0 0 0 1
8 9 9 9 8 7 6 6 6 5 4 3 1 -2 -4 -7 -11 -9 -8 -8 -9 -9 -8 -7 -6 -4 -3 -1 2 3 3 3 3 3 3 3 2 2 2 2 2 1
9 9 9 8 8 7 6 7 7 5 4 5 4 1 -3 -10 -13 -11 -10 -9 -9 -8 -7 -6 -4 -2 -1 1 3 4 4 4 4 4 4 4 4 4 4 5 4 4
8 9 8 8 8 7 7 7 7 6 5 5 5 4 -2 -11 -15 -12 -11 -9 -8 -8 -6 -4 -2 -0 -0 1 2 3 3 4 4 3 3 4 5 5 5 5 5 5
6 8 8 8 8 8 7 7 7 7 6 5 5 6 2 -7 -14 -11 -9 -8 -7 -6 -4 -3 -1 1 1 1 1 1 1 1 2 3 3 4 5 5 5 5 5 4
7 8 8 8 8 8 7 7 7 6 6 5 5 6 5 -0 -7 -9 -8 -7 -6 -4 -2 -0 0 1 2 3 3 3 3 3 2 2 3 5 5 5 5 6 6 5
8 8 8 7 7 7 6 6 6 5 5 5 5 5 5 4 -0 -4 -6 -6 -4 -1 -0 1 1 2 3 5 5 4 5 5 5 4 4 5 6 6 6 6 6 6
8 8 8 7 6 5 5 4 4 4 3 5 5 5 5 5 3 1 -1 -3 -2 -1 -0 1 2 4 5 5 6 5 5 6 6 6 6 6 6 6 6 6 6 6
8 8 8 7 7 6 6 6 6 5 5 5 6 6 6 5 4 4 3 2 1 2 2 3 4 5 5 5 5 5 5 5 5 5 5 6 6 6 6 6 6 6
9 8 8 7 8 7 7 7 7 7 7 7 6 6 6 6 5 5 5 5 4 4 5 5 5 5 5 5 4 4 4 5 5 5 5 5 5 5 6 6 6 6
9 9 8 8 7 8 8 8 8 8 7 7 7 7 6 6 6 6 6 6 5 5 4 4 4 4 3 2 2 2 2 3 4 5 5 5 5 5 6 6 6 6
8 8 8 8 8 8 8 8 8 8 7 7 7 7 7 6 6 6 6 6 5 4 4 4 4 2 1 -0 0 1 0 1 3 5 5 5 5 5 6 6 6 6
8 8 8 8 7 7 7 8 8 8 7 7 7 7 7 7 7 7 6 6 5 5 5 5 4 3 3 3 3 2 1 1 3 4 5 5 5 5 6 6 6 6
7 7 7 7 7 7 7 7 7 7 7 7 7 8 8 8 7 7 7 6 6 6 5 5 5 4 5 5 5 5 4 3 3 4 5 5 5 6 6 6 6 6
5 5 6 6 6 6 7 7 7 7 7 7 7 7 7 8 8 8 7 7 7 7 6 6 6 6 6 6 6 6 5 5 4 5 5 5 5 6 6 6 6 6